Terug naar catalogus

COSMOS 1375 DEB

ActiefLEO
NORAD 18278·DEBRIS·🇷🇺 Russia

Gelanceerd Jun 6, 1982 vanaf Plesetsk Cosmodrome

Loading…

Volgende Passages (komende 24 uur)

TLE

VersSource: Space-Track

Epoch: Sep 14, 2026, 11:10 UTC

1 18278U 82055BA  26257.46546716  .00000388  00000-0  37591-3 0  9994
2 18278  65.8287  67.9780 0030910 148.8809 240.4064 13.90738271 64250

Volg COSMOS 1375 DEB in realtime met AllMySat

Download on the App Store